Location: Great Malvern
(52.1167°N, 2.3167°W)
Time: 07:39:32
(UTC+00:00)

NOSS 2-2 (D) - Pass Details

Date: 18 September 2020
Orbit: 462 x 1746 km, 63.3° (Epoch: 14 October)

Event Time Altitude Azimuth Distance (km) Brightness Sun altitude
Rises 19:20:29 0° 196° (SSW) 2,481 6.7 -10.6°
Reaches altitude 10° 19:22:39 10° 185° (S) 1,614 5.6 -10.9°
Maximum altitude 19:25:45 30° 122° (ESE) 893 3.9 -11.3°
Drops below altitude 10° 19:29:12 10° 60° (ENE) 1,813 5.6 -11.8°
Sets 19:31:47 0° 50° (NE) 2,854 6.7 -12.2°
